[Iaude] MPEC Y64: 2019 YV1 [a=1.02,e=0.11,i=8.7,H=25.1]

mpec at marsden.cfa.harvard.edu mpec at marsden.cfa.harvard.edu
Sun Dec 22 17:29:36 EST 2019


M.P.E.C. 2019-Y64                             Issued 2019 December 22, 22:27 UT

     The Minor Planet Electronic Circulars contain information on unusual
         minor planets and routine data on comets.  They are published
    on behalf of Division F of the International Astronomical Union by the
          Minor Planet Center, Smithsonian Astrophysical Observatory,
                          Cambridge, MA 02138, U.S.A.

             Prepared using the Tamkin Foundation Computer Network

                              MPC at CFA.HARVARD.EDU
            URL https://www.minorplanetcenter.net/    ISSN 1523-6714

                                    2019 YV1                                    


Observations:
     K19Y01V* C2019 12 21.11125 01 36 35.28 +04 43 04.8          18.8 GVEY064G96
     K19Y01V  C2019 12 21.11692 01 36 37.58 +04 46 03.5          19.1 GVEY064G96
     K19Y01V  C2019 12 21.12258 01 36 39.86 +04 49 01.5          18.7 GVEY064G96
     K19Y01V  C2019 12 21.12824 01 36 42.12 +04 51 58.9          18.9 GVEY064G96
     K19Y01V  C2019 12 21.19232 01 37 08.02 +05 25 21.6          18.4 GVEY064I52
     K19Y01V  C2019 12 21.19251 01 37 08.09 +05 25 27.4          18.6 GVEY064I52
     K19Y01V  C2019 12 21.19269 01 37 08.15 +05 25 33.6          18.6 GVEY064I52
     K19Y01V  C2019 12 21.19288 01 37 08.23 +05 25 39.1          18.7 GVEY064I52
     K19Y01V  C2019 12 21.24381 01 37 29.75 +05 51 55.8          18.5 GVEY064I52
     K19Y01V  C2019 12 21.24399 01 37 29.82 +05 52 01.9          18.4 GVEY064I52
     K19Y01V  C2019 12 21.24418 01 37 29.90 +05 52 07.6          18.4 GVEY064I52
     K19Y01V  C2019 12 21.24437 01 37 29.98 +05 52 13.8          18.5 GVEY064I52
     K19Y01V  C2019 12 21.68422 01 41 50.61 +09 31 53.3          19.2 VVEY064033
     K19Y01V  C2019 12 21.68478 01 41 50.85 +09 32 09.5          19.0 VVEY064033
     K19Y01V  C2019 12 21.68534 01 41 51.09 +09 32 26.2          19.1 VVEY064033
     K19Y01V KC2019 12 21.86137501 43 03.88 +10 58 12.9          19.0 GVEY064L01
     K19Y01V pC2019 12 21.86221001 43 04.23 +10 58 36.6          18.8 GVEY064L01
     K19Y01V KC2019 12 21.86304501 43 04.59 +10 59 00.6          18.9 GVEY064L01
     K19Y01V KC2019 12 21.86388101 43 04.94 +10 59 24.4          19.2 GVEY064L01
     K19Y01V KC2019 12 21.86471301 43 05.28 +10 59 48.4          18.9 GVEY064L01
     K19Y01V KC2019 12 21.86554601 43 05.63 +11 00 12.0          19.0 GVEY064L01
     K19Y01V  C2019 12 21.86897 01 43 16.49 +11 03 41.4          17.3 RVEY064J04
     K19Y01V  C2019 12 21.86911 01 43 16.55 +11 03 45.4          17.6 RVEY064J04
     K19Y01V  C2019 12 21.86925 01 43 16.61 +11 03 49.3          17.7 RVEY064J04
     K19Y01V  C2019 12 21.87205 01 43 09.88 +11 02 47.4          19.5 VVEY064033
     K19Y01V  C2019 12 21.87262 01 43 10.12 +11 03 03.9          19.3 VVEY064033
     K19Y01V  C2019 12 21.87317 01 43 10.36 +11 03 19.5          19.5 VVEY064033
     K19Y01V KC2019 12 22.00367301 44 34.10 +12 06 13.8          18.9 VuEY064H21
     K19Y01V KC2019 12 22.00536301 44 34.77 +12 07 01.4          18.9 VuEY064H21
     K19Y01V KC2019 12 22.00705101 44 35.42 +12 07 49.2          18.9 VuEY064H21
     K19Y01V KC2019 12 22.03816 01 44 50.31 +12 22 28.1          18.3 RqEY064H36
     K19Y01V KC2019 12 22.04025 01 44 51.09 +12 23 27.5          18.7 RqEY064H36
     K19Y01V KC2019 12 22.04236 01 44 51.92 +12 24 26.0          18.3 RqEY064H36
     K19Y01V KC2019 12 22.04448 01 44 52.76 +12 25 25.6          18.4 RqEY064H36
     K19Y01V KC2019 12 22.04659 01 44 53.53 +12 26 25.2          18.4 RqEY064H36
     K19Y01V  C2019 12 22.06206 01 45 05.39 +12 34 11.6          18.4 GVEY064I52
     K19Y01V  C2019 12 22.06219 01 45 05.48 +12 34 15.8          18.7 GVEY064I52
     K19Y01V  C2019 12 22.06232 01 45 05.53 +12 34 19.0          18.9 GVEY064I52
     K19Y01V  C2019 12 22.06246 01 45 05.61 +12 34 23.2          18.6 GVEY064I52
     K19Y01V KC2019 12 22.06928 01 45 05.77 +12 37 48.8                oEY064711
     K19Y01V KC2019 12 22.07169 01 45 06.66 +12 38 56.8                oEY064711
     K19Y01V KC2019 12 22.07413 01 45 07.60 +12 40 05.1                oEY064711
     K19Y01V KC2019 12 22.72273 01 50 34.53 +17 25 46.8          18.8 GVEY064K63
     K19Y01V KC2019 12 22.72567 01 50 35.68 +17 27 01.1          18.6 GVEY064K63
     K19Y01V KC2019 12 22.72813 01 50 36.66 +17 28 04.4          18.7 GVEY064K63
     K19Y01V KC2019 12 22.75469 01 50 49.52 +17 39 28.3          19.0 GVEY064B49
     K19Y01V KC2019 12 22.75479 01 50 49.56 +17 39 31.1          18.9 GVEY064B49
     K19Y01V KC2019 12 22.78394 01 50 57.44 +17 51 33.4          19.4 GVEY064104
     K19Y01V KC2019 12 22.79285 01 51 00.73 +17 55 16.2                VEY064104
     K19Y01V KC2019 12 22.79880 01 51 02.97 +17 57 44.6          19.3 GVEY064104
     K19Y01V KC2019 12 22.88396601 51 39.31 +18 32 09.8          18.7 GVEY064J95
     K19Y01V KC2019 12 22.88823901 51 40.98 +18 33 54.4          18.6 GVEY064J95
     K19Y01V KC2019 12 22.89339501 51 42.96 +18 35 59.7          18.4 GVEY064J95
     K19Y01V KC2019 12 22.89764001 51 44.62 +18 37 43.3          18.7 GVEY064J95

Observer details:
033 Karl Schwarzschild Observatory, Tautenburg.  Observers S. Melnikov, C. 
   Hoegner, B. Stecklum.  Measurer B. Stecklum.  1.34-m f/3 Schmidt + CCD.
104 San Marcello Pistoiese.  Observers P. Bacci, M. Maestripieri, M. D. Grazia. 
    Measurers P. Bacci, L. Tesi, G. Fagioli.  0.60-m reflector + CCD.
711 McDonald Observatory, Fort Davis.  Observer J. G. Ries.  2.1-m reflector + 
   CCD + focal reducer.
B49 Paus Observatory, Sabadell.  Observer J. Camarasa.  0.30-m f/4 reflector + 
   CCD.
G96 Mt. Lemmon Survey.  Observer D. C. Fuls.  Measurers E. J. Christensen, G. 
   A. Farneth, D. C. Fuls, A. R. Gibbs, A. D. Grauer, H. Groeller, R. A. 
   Kowalski, S. M. Larson, G. J. Leonard, T. A. Pruyne, D. Rankin, R. L. Seaman,
    F. C. Shelly, K. W. Wierzchos.  1.5-m reflector + 10K CCD.
H21 Astronomical Research Observatory, Westfield.  Observer R. Holmes.  
    Measurers S. Foglia, L. Buzzi, T. Linder, R. Holmes.  0.76-m f/3.0 
   astrograph + CCD.
H36 Sandlot Observatory, Scranton.  Observer G. Hug.  0.56-m f/5.1 reflector + 
   CCD.
I52 Steward Observatory, Mt. Lemmon Station.  Observer D. Rankin.  Measurers E. 
   J. Christensen, G. A. Farneth, D. C. Fuls, A. R. Gibbs, A. D. Grauer, H. 
   Groeller, R. A. Kowalski, S. M. Larson, G. J. Leonard, T. A. Pruyne, D. 
   Rankin, R. L. Seaman, F. C. Shelly, K. W. Wierzchos.  1.0-m reflector + CCD.
J04 ESA Optical Ground Station, Tenerife.  Observer D. Abreu.  Measurers A. 
   Knofel, D. Koschny, M. Busch, M. Micheli, E. Schwab.  1.0-m f/4.4 
   reflector + CCD.
J95 Great Shefford.  Observer P. Birtwhistle.  0.41-m f/6.3 Schmidt-Cassegrain 
   + CCD.
K63 G. Pascoli Observatory, Castelvecchio Pascoli.  Observer R. Bacci.  0.4-m 
   f/3.2 Newtonian reflector + CCD.
L01 Visnjan Observatory, Tican.  Observer K. Korlevic.  1.0-m f/2.9 reflector + 
   CCD.

Orbital elements:
2019 YV1                                                 Earth MOID = 0.0033 AU
Epoch 2020 May 31.0 TT = JDT 2459000.5                  Bell
M 227.78011              (2000.0)            P               Q
n   0.96170667     Peri.  274.28388     +0.98769203     -0.04266562
a   1.0165006      Node    88.21023     +0.09997066     +0.91211512
e   0.1145077      Incl.    8.65898     -0.12029267     +0.40770780
P   1.02           H   25.1           G   0.15           U   6
Residuals in seconds of arc
191221 G96  0.1-  0.2-    191221 L01  0.1+  0.0     191222 I52  0.2+  0.1-
191221 G96  0.3+  0.1+    191221 L01  0.0   0.3+    191222 I52  0.2+  0.5-
191221 G96  0.4+  0.1+    191221 L01  0.0   0.1+    191222 I52  0.6+  0.3-
191221 G96  0.2+  0.3-    191221 J04  0.1-  0.2-    191222 711  0.2-  0.1-
191221 I52  0.2+  0.0     191221 J04  0.1+  0.2-    191222 711  0.3-  0.4+
191221 I52  0.1+  0.1-    191221 J04  0.2+  0.3-    191222 711  0.2+  0.5+
191221 I52  0.1-  0.5+    191221 033  0.3-  0.5-    191222 K63  0.4-  0.2+
191221 I52  0.1-  0.1+    191221 033  0.3-  0.2-    191222 K63  0.1-  0.3-
191221 I52  0.2+  0.4-    191221 033  0.3-  0.3-    191222 K63  0.5+  0.3+
191221 I52  0.1+  0.2+    191222 H21  0.1-  0.3+    191222 B49  0.2-  0.3+
191221 I52  0.1+  0.0     191222 H21  0.0   0.1+    191222 B49  0.1-  0.6+
191221 I52  0.0   0.4+    191222 H21  0.2-  0.1+    191222 104  0.3-  0.2+
191221 033  0.2-  0.1-    191222 H36  0.3+  0.4+    191222 104  0.4-  0.1+
191221 033  0.3-  0.5-    191222 H36  0.2-  1.0+    191222 104  0.1+  0.0
191221 033  0.4-  0.3-    191222 H36  0.0   0.2+    191222 J95  0.3+  0.0
191221 L01  0.2-  0.0     191222 H36  0.3+  0.2+    191222 J95  0.3+  0.2+
191221 L01  0.2-  0.1-    191222 H36  0.4-  0.5+    191222 J95  0.1-  0.3-
191221 L01  0.0   0.0     191222 I52  0.4-  0.6-    191222 J95  0.2-  0.2-

Ephemeris:
2019 YV1                 a,e,i = 1.02, 0.11, 9                   q = 0.9001
Date    TT    R. A. (2000) Decl.     Delta      r    Elong.  Phase     V
2019 11 22    18 22 58.3 -73 15 24   0.09667 0.9394    57.5   117.5    24.6
...
2019 12 07    21 57 27.0 -71 57 35   0.04717 0.9658    64.4   113.0    22.7
...
2019 12 15    00 25 20.8 -47 57 42   0.02497 0.9811    82.1    96.5    20.5
...
2019 12 21    01 35 31.3 +03 47 16   0.02125 0.9929   114.8    64.0    19.0
2019 12 22    01 44 23.8 +12 07 10   0.02258 0.9949   119.0    59.8    19.0
2019 12 23    01 52 40.2 +19 22 14   0.02436 0.9968   122.2    56.7    19.1
...
2019 12 29    02 32 54.1 +44 13 55   0.04037 1.0087   127.9    50.3    20.0
...
2020 01 06    03 12 06.4 +55 22 24   0.06680 1.0243   126.4    50.6    21.2
...
2020 01 21    04 09 32.8 +60 51 47   0.1199  1.0524   122.0    52.5    22.5

A. U. Tomatic                (C) Copyright 2019 MPC           M.P.E.C. 2019-Y64




More information about the Iaude mailing list